Wetterdaten: Woche 03.12.12 - 09.12.12 (KW49)
Datum Zeit Temp. Innen Temp. Aussen Temp. 2 +5cm Bl.Temp 1 Feuchte Auss Feuchte 2 BlattFeu 1 Luftdruck Regen Sonnenschein T Regendauer ET UV Solar Windben Empfang
03.12.2012 00:00 12,1 C 2,7 C -22,8 C 0,6 C 0,0 C 96 % 0 % 0 lf 1014,9 hPa 0,0 l/m 0,00 h 0,00 h 0,000 mm 0,0 UV-I 0 W/m 4,8 km/h (1 Bft) 0,00 %
03.12.2012 01:00 12,2 C 2,8 C -22,8 C 0,7 C 0,0 C 96 % 0 % 0 lf 1014,7 hPa 0,0 l/m 0,00 h 0,00 h 0,000 mm 0,0 UV-I 0 W/m 2,8 km/h (1 Bft) 0,00 %
03.12.2012 02:00 12,2 C 2,5 C -22,9 C 0,2 C 0,0 C 95 % 0 % 0 lf 1014,9 hPa 0,0 l/m 0,00 h 0,00 h 0,000 mm 0,0 UV-I 0 W/m 1,6 km/h (1 Bft) 0,00 %
03.12.2012 03:00 12,2 C 2,4 C -22,8 C 0,4 C 0,0 C 96 % 0 % 0 lf 1014,8 hPa 0,0 l/m 0,00 h 0,00 h 0,000 mm 0,0 UV-I 0 W/m 2,6 km/h (1 Bft) 0,00 %
03.12.2012 04:00 12,1 C 2,5 C -22,8 C 0,4 C 0,0 C 95 % 0 % 0 lf 1014,7 hPa 0,0 l/m 0,00 h 0,00 h 0,000 mm 0,0 UV-I 0 W/m 8,3 km/h (2 Bft) 0,00 %
03.12.2012 05:00 11,9 C 2,1 C -22,9 C -0,6 C 0,0 C 93 % 0 % 0 lf 1014,5 hPa 0,0 l/m 0,00 h 0,00 h 0,000 mm 0,0 UV-I 0 W/m 6,6 km/h (2 Bft) 0,00 %
03.12.2012 06:00 12,0 C 1,5 C -23,0 C -1,7 C 0,0 C 92 % 0 % 0 lf 1014,2 hPa 0,0 l/m 0,00 h 0,00 h 0,000 mm 0,0 UV-I 0 W/m 5,2 km/h (1 Bft) 0,00 %
03.12.2012 07:00 11,9 C 1,4 C -23,0 C -1,8 C 0,0 C 91 % 0 % 0 lf 1013,7 hPa 0,0 l/m 0,00 h 0,00 h 0,000 mm 0,0 UV-I 0 W/m 7,2 km/h (2 Bft) 0,00 %
03.12.2012 08:00 11,9 C 1,8 C -22,9 C -1,1 C 0,0 C 89 % 0 % 0 lf 1012,9 hPa 0,0 l/m 0,00 h 0,00 h 0,000 mm 0,0 UV-I 0 W/m 9,8 km/h (2 Bft) 0,00 %
03.12.2012 09:00 11,9 C 2,3 C -22,8 C -0,2 C 0,0 C 87 % 0 % 0 lf 1012,0 hPa 0,0 l/m 0,00 h 0,00 h 0,000 mm 0,0 UV-I 0 W/m 9,6 km/h (2 Bft) 0,00 %
03.12.2012 10:00 11,9 C 2,2 C 16,7 C 0,2 C 0,0 C 89 % 0 % 0 lf 1011,8 hPa 0,4 l/m 0,00 h 0,00 h 0,000 mm 0,0 UV-I 0 W/m 8,5 km/h (2 Bft) 0,00 %
03.12.2012 11:00 12,0 C 1,7 C 28,7 C 0,4 C 0,0 C 93 % 0 % 0 lf 1010,4 hPa 0,9 l/m 0,00 h 0,00 h 0,000 mm 0,0 UV-I 0 W/m 11,2 km/h (2 Bft) 0,00 %
03.12.2012 12:00 12,0 C 1,3 C 24,5 C -0,2 C 0,0 C 94 % 0 % 0 lf 1008,7 hPa 0,7 l/m 0,00 h 0,00 h 0,000 mm 0,0 UV-I 0 W/m 16,3 km/h (3 Bft) 0,00 %
03.12.2012 13:00 12,0 C 1,2 C 22,0 C -0,7 C 0,0 C 96 % 0 % 0 lf 1006,7 hPa 1,9 l/m 0,00 h 0,00 h 0,000 mm 0,0 UV-I 0 W/m 18,1 km/h (3 Bft) 0,00 %
03.12.2012 14:00 11,9 C 1,6 C 22,0 C -0,3 C 0,0 C 96 % 0 % 0 lf 1005,5 hPa 1,7 l/m 0,00 h 0,00 h 0,000 mm 0,0 UV-I 0 W/m 15,1 km/h (3 Bft) 0,00 %
03.12.2012 15:00 11,9 C 2,0 C 4,1 C 0,3 C 0,0 C 96 % 0 % 0 lf 1004,8 hPa 0,4 l/m 0,00 h 0,00 h 0,000 mm 0,0 UV-I 0 W/m 9,4 km/h (2 Bft) 0,00 %
03.12.2012 16:00 11,9 C 2,6 C -17,6 C 1,0 C 0,0 C 97 % 0 % 0 lf 1003,7 hPa 0,1 l/m 0,00 h 0,00 h 0,000 mm 0,0 UV-I 0 W/m 9,5 km/h (2 Bft) 0,00 %
03.12.2012 17:00 12,0 C 3,0 C -3,8 C 1,4 C 0,0 C 97 % 0 % 0 lf 1003,3 hPa 0,9 l/m 0,00 h 0,00 h 0,000 mm 0,0 UV-I 0 W/m 5,5 km/h (1 Bft) 0,00 %
03.12.2012 18:00 12,1 C 3,3 C -22,7 C 1,8 C 0,0 C 97 % 0 % 0 lf 1002,8 hPa 0,7 l/m 0,00 h 0,00 h 0,000 mm 0,0 UV-I 0 W/m 3,8 km/h (1 Bft) 0,00 %
03.12.2012 19:00 12,2 C 4,0 C -15,8 C 2,3 C 0,0 C 98 % 0 % 0 lf 1002,3 hPa 0,1 l/m 0,00 h 0,00 h 0,000 mm 0,0 UV-I 0 W/m 0,6 km/h (0 Bft) 0,00 %
03.12.2012 20:00 12,2 C 5,2 C -15,7 C 3,0 C 0,0 C 98 % 0 % 0 lf 1002,3 hPa 0,1 l/m 0,00 h 0,00 h 0,000 mm 0,0 UV-I 0 W/m 10,6 km/h (2 Bft) 0,00 %
03.12.2012 21:00 12,2 C 5,5 C -22,6 C 2,7 C 0,0 C 98 % 0 % 0 lf 1002,1 hPa 0,0 l/m 0,00 h 0,00 h 0,000 mm 0,0 UV-I 0 W/m 7,6 km/h (2 Bft) 0,00 %
03.12.2012 22:00 12,2 C 5,2 C -22,6 C 1,6 C 0,0 C 97 % 0 % 0 lf 1002,1 hPa 0,0 l/m 0,00 h 0,00 h 0,000 mm 0,0 UV-I 0 W/m 6,6 km/h (2 Bft) 0,00 %
03.12.2012 23:00 12,2 C 5,0 C -22,6 C 1,1 C 0,0 C 97 % 0 % 0 lf 1002,1 hPa 0,0 l/m 0,00 h 0,00 h 0,000 mm 0,0 UV-I 0 W/m 7,9 km/h (2 Bft) 0,00 %
04.12.2012 00:00 12,0 C 4,7 C -22,7 C 0,9 C 0,0 C 97 % 0 % 0 lf 1001,8 hPa 0,0 l/m 0,00 h 0,00 h 0,000 mm 0,0 UV-I 0 W/m 10,4 km/h (2 Bft) 0,00 %
04.12.2012 01:00 12,0 C 4,3 C -19,3 C 0,5 C 0,0 C 97 % 0 % 0 lf 1001,2 hPa 0,0 l/m 0,00 h 0,00 h 0,000 mm 0,0 UV-I 0 W/m 6,6 km/h (2 Bft) 0,00 %
04.12.2012 02:00 11,9 C 4,3 C -22,7 C 0,9 C 0,0 C 97 % 0 % 0 lf 1000,4 hPa 0,1 l/m 0,00 h 0,00 h 0,000 mm 0,0 UV-I 0 W/m 5,2 km/h (1 Bft) 0,00 %
04.12.2012 03:00 12,1 C 4,1 C -22,7 C 1,0 C 0,0 C 97 % 0 % 0 lf 999,9 hPa 0,0 l/m 0,00 h 0,00 h 0,000 mm 0,0 UV-I 0 W/m 1,4 km/h (1 Bft) 0,00 %
04.12.2012 04:00 12,2 C 4,0 C -22,7 C 1,1 C 0,0 C 97 % 0 % 0 lf 999,4 hPa 0,0 l/m 0,00 h 0,00 h 0,000 mm 0,0 UV-I 0 W/m 2,2 km/h (1 Bft) 0,00 %
04.12.2012 05:00 12,2 C 3,8 C -22,8 C 0,7 C 0,0 C 97 % 0 % 0 lf 998,9 hPa 0,0 l/m 0,00 h 0,00 h 0,000 mm 0,0 UV-I 0 W/m 1,5 km/h (1 Bft) 0,00 %
04.12.2012 06:00 12,1 C 3,5 C -22,8 C 0,1 C 0,0 C 97 % 0 % 0 lf 998,4 hPa 0,0 l/m 0,00 h 0,00 h 0,000 mm 0,0 UV-I 0 W/m 1,1 km/h (1 Bft) 0,00 %
04.12.2012 07:00 12,0 C 3,3 C -22,8 C -0,2 C 0,0 C 97 % 0 % 0 lf 998,0 hPa 0,0 l/m 0,00 h 0,00 h 0,000 mm 0,0 UV-I 0 W/m 5,1 km/h (1 Bft) 0,00 %
04.12.2012 08:00 11,9 C 3,3 C -22,8 C -0,1 C 0,0 C 97 % 0 % 0 lf 998,0 hPa 0,0 l/m 0,00 h 0,00 h 0,000 mm 0,0 UV-I 0 W/m 9,1 km/h (2 Bft) 0,00 %
04.12.2012 09:00 11,8 C 3,4 C -21,0 C 0,4 C 0,0 C 97 % 0 % 0 lf 998,3 hPa 0,0 l/m 0,00 h 0,00 h 0,000 mm 0,0 UV-I 0 W/m 12,3 km/h (3 Bft) 0,00 %
04.12.2012 10:00 11,9 C 4,1 C -22,6 C 1,8 C 0,0 C 96 % 0 % 0 lf 998,4 hPa 0,0 l/m 0,00 h 0,00 h 0,000 mm 0,0 UV-I 0 W/m 14,2 km/h (3 Bft) 0,00 %
04.12.2012 11:00 11,9 C 5,2 C -10,5 C 3,0 C 0,0 C 94 % 0 % 0 lf 998,5 hPa 0,0 l/m 0,00 h 0,00 h 0,000 mm 0,0 UV-I 0 W/m 18,4 km/h (3 Bft) 0,00 %
04.12.2012 12:00 12,2 C 5,8 C -22,5 C 4,4 C 0,0 C 91 % 0 % 0 lf 997,8 hPa 0,0 l/m 0,00 h 0,00 h 0,000 mm 0,0 UV-I 0 W/m 20,9 km/h (4 Bft) 0,00 %
04.12.2012 13:00 12,2 C 5,6 C -22,5 C 4,3 C 0,0 C 89 % 0 % 0 lf 997,3 hPa 0,0 l/m 0,00 h 0,00 h 0,000 mm 0,0 UV-I 0 W/m 28,4 km/h (4 Bft) 0,00 %
04.12.2012 14:00 12,0 C 5,7 C -12,2 C 3,7 C 0,0 C 89 % 0 % 0 lf 996,8 hPa 0,0 l/m 0,00 h 0,00 h 0,000 mm 0,0 UV-I 0 W/m 24,4 km/h (4 Bft) 0,00 %
04.12.2012 15:00 11,9 C 5,2 C 28,8 C 3,0 C 0,0 C 92 % 0 % 0 lf 996,7 hPa 1,1 l/m 0,00 h 0,00 h 0,000 mm 0,0 UV-I 0 W/m 25,0 km/h (4 Bft) 0,00 %
04.12.2012 16:00 11,8 C 4,6 C 15,1 C 2,7 C 0,0 C 94 % 0 % 0 lf 997,3 hPa 0,6 l/m 0,00 h 0,00 h 0,000 mm 0,0 UV-I 0 W/m 20,3 km/h (4 Bft) 0,00 %
04.12.2012 17:00 11,8 C 4,4 C -20,9 C 2,3 C 0,0 C 95 % 0 % 0 lf 997,6 hPa 0,0 l/m 0,00 h 0,00 h 0,000 mm 0,0 UV-I 0 W/m 14,2 km/h (3 Bft) 0,00 %
04.12.2012 18:00 11,8 C 3,9 C -22,7 C 1,5 C 0,0 C 95 % 0 % 0 lf 998,1 hPa 0,1 l/m 0,00 h 0,00 h 0,000 mm 0,0 UV-I 0 W/m 11,3 km/h (2 Bft) 0,00 %
04.12.2012 19:00 11,9 C 3,5 C -22,8 C 0,9 C 0,0 C 95 % 0 % 0 lf 998,5 hPa 0,0 l/m 0,00 h 0,00 h 0,000 mm 0,0 UV-I 0 W/m 7,7 km/h (2 Bft) 0,00 %
04.12.2012 20:00 11,8 C 3,1 C -22,9 C 0,3 C 0,0 C 94 % 0 % 0 lf 998,7 hPa 0,0 l/m 0,00 h 0,00 h 0,000 mm 0,0 UV-I 0 W/m 6,6 km/h (2 Bft) 0,00 %
04.12.2012 21:00 11,8 C 2,9 C -22,9 C 0,1 C 0,0 C 95 % 0 % 0 lf 998,9 hPa 0,0 l/m 0,00 h 0,00 h 0,000 mm 0,0 UV-I 0 W/m 7,7 km/h (2 Bft) 0,00 %
04.12.2012 22:00 11,9 C 3,1 C -14,2 C 0,8 C 0,0 C 96 % 0 % 0 lf 999,1 hPa 0,0 l/m 0,00 h 0,00 h 0,000 mm 0,0 UV-I 0 W/m 5,0 km/h (1 Bft) 0,00 %
04.12.2012 23:00 11,9 C 3,5 C -5,5 C 1,5 C 0,0 C 96 % 0 % 0 lf 999,2 hPa 0,1 l/m 0,00 h 0,00 h 0,000 mm 0,0 UV-I 0 W/m 9,3 km/h (2 Bft) 0,00 %
05.12.2012 00:00 11,9 C 3,3 C -12,4 C 1,7 C 0,0 C 96 % 0 % 0 lf 999,3 hPa 0,0 l/m 0,00 h 0,00 h 0,000 mm 0,0 UV-I 0 W/m 3,8 km/h (1 Bft) 0,00 %
05.12.2012 01:00 11,9 C 3,2 C 27,1 C 1,9 C 0,0 C 96 % 0 % 0 lf 999,6 hPa 0,2 l/m 0,00 h 0,00 h 0,000 mm 0,0 UV-I 0 W/m 2,5 km/h (1 Bft) 0,00 %
05.12.2012 02:00 12,0 C 3,2 C -21,0 C 1,8 C 0,0 C 97 % 0 % 0 lf 999,8 hPa 0,0 l/m 0,00 h 0,00 h 0,000 mm 0,0 UV-I 0 W/m 1,9 km/h (1 Bft) 0,00 %
05.12.2012 03:00 12,1 C 3,1 C -9,0 C 1,7 C 0,0 C 97 % 0 % 0 lf 999,8 hPa 0,0 l/m 0,00 h 0,00 h 0,000 mm 0,0 UV-I 0 W/m 3,0 km/h (1 Bft) 0,00 %
05.12.2012 04:00 12,1 C 3,1 C -22,7 C 1,7 C 0,0 C 97 % 0 % 0 lf 999,6 hPa 0,0 l/m 0,00 h 0,00 h 0,000 mm 0,0 UV-I 0 W/m 0,9 km/h (0 Bft) 0,00 %
05.12.2012 05:00 12,2 C 3,1 C -22,8 C 1,9 C 0,0 C 97 % 0 % 0 lf 999,9 hPa 0,1 l/m 0,00 h 0,00 h 0,000 mm 0,0 UV-I 0 W/m 3,2 km/h (1 Bft) 0,00 %
05.12.2012 06:00 12,2 C 3,1 C -22,8 C 2,0 C 0,0 C 97 % 0 % 0 lf 1000,2 hPa 0,0 l/m 0,00 h 0,00 h 0,000 mm 0,0 UV-I 0 W/m 3,2 km/h (1 Bft) 0,00 %
05.12.2012 07:00 12,2 C 3,0 C -22,8 C 1,9 C 0,0 C 97 % 0 % 0 lf 1000,8 hPa 0,0 l/m 0,00 h 0,00 h 0,000 mm 0,0 UV-I 0 W/m 8,3 km/h (2 Bft) 0,00 %
05.12.2012 08:00 12,2 C 2,5 C -22,8 C 1,6 C 0,0 C 97 % 0 % 0 lf 1001,3 hPa 0,0 l/m 0,00 h 0,00 h 0,000 mm 0,0 UV-I 0 W/m 6,0 km/h (2 Bft) 0,00 %
05.12.2012 09:00 12,2 C 2,4 C -22,8 C 1,8 C 0,0 C 97 % 0 % 0 lf 1002,1 hPa 0,0 l/m 0,00 h 0,00 h 0,000 mm 0,0 UV-I 0 W/m 2,6 km/h (1 Bft) 0,00 %
05.12.2012 10:00 12,2 C 2,5 C -22,8 C 2,3 C 0,0 C 96 % 0 % 0 lf 1002,6 hPa 0,0 l/m 0,00 h 0,00 h 0,000 mm 0,0 UV-I 0 W/m 3,6 km/h (1 Bft) 0,00 %
05.12.2012 11:00 12,3 C 3,0 C -22,7 C 3,1 C 0,0 C 96 % 0 % 0 lf 1002,9 hPa 0,0 l/m 0,00 h 0,00 h 0,000 mm 0,1 UV-I 0 W/m 0,5 km/h (0 Bft) 0,00 %
05.12.2012 12:00 12,4 C 3,1 C -22,7 C 2,2 C 0,2 C 95 % 0 % 0 lf 1002,7 hPa 0,0 l/m 0,00 h 0,00 h 0,000 mm 0,2 UV-I 0 W/m 0,0 km/h (0 Bft) 0,00 %
05.12.2012 13:00 12,6 C 3,2 C -22,7 C 2,3 C 0,1 C 93 % 0 % 0 lf 1002,7 hPa 0,0 l/m 0,00 h 0,00 h 0,000 mm 0,1 UV-I 0 W/m 0,2 km/h (0 Bft) 0,00 %
05.12.2012 14:00 12,7 C 3,5 C -22,6 C 3,4 C 0,0 C 92 % 0 % 0 lf 1002,8 hPa 0,0 l/m 0,00 h 0,00 h 0,000 mm 0,1 UV-I 0 W/m 0,6 km/h (0 Bft) 0,00 %
05.12.2012 15:00 12,5 C 3,4 C -22,7 C 2,7 C 0,0 C 91 % 0 % 0 lf 1002,5 hPa 0,0 l/m 0,00 h 0,00 h 0,000 mm 0,0 UV-I 0 W/m 0,0 km/h (0 Bft) 0,00 %
05.12.2012 16:00 12,3 C 3,2 C -17,6 C 1,8 C 0,0 C 91 % 0 % 0 lf 1002,4 hPa 0,0 l/m 0,00 h 0,00 h 0,000 mm 0,0 UV-I 0 W/m 2,9 km/h (1 Bft) 0,00 %
05.12.2012 17:00 12,2 C 2,8 C -19,3 C 1,2 C 0,0 C 92 % 0 % 0 lf 1002,7 hPa 0,0 l/m 0,00 h 0,00 h 0,000 mm 0,0 UV-I 0 W/m 2,8 km/h (1 Bft) 0,00 %
05.12.2012 18:00 12,1 C 2,3 C -22,9 C 1,0 C 0,0 C 94 % 0 % 0 lf 1003,0 hPa 0,0 l/m 0,00 h 0,00 h 0,000 mm 0,0 UV-I 0 W/m 5,2 km/h (1 Bft) 0,00 %
05.12.2012 19:00 12,0 C 2,0 C -22,9 C 0,8 C 0,0 C 95 % 0 % 0 lf 1003,4 hPa 0,0 l/m 0,00 h 0,00 h 0,000 mm 0,0 UV-I 0 W/m 8,2 km/h (2 Bft) 0,00 %
05.12.2012 20:00 11,9 C 1,9 C -22,9 C 0,7 C 0,0 C 95 % 0 % 0 lf 1003,8 hPa 0,0 l/m 0,00 h 0,00 h 0,000 mm 0,0 UV-I 0 W/m 12,0 km/h (2 Bft) 0,00 %
05.12.2012 21:00 11,8 C 1,7 C -10,9 C 0,7 C 0,0 C 95 % 0 % 0 lf 1004,0 hPa 0,0 l/m 0,00 h 0,00 h 0,000 mm 0,0 UV-I 0 W/m 10,1 km/h (2 Bft) 0,00 %
05.12.2012 22:00 11,8 C 1,4 C 9,8 C 0,2 C 0,0 C 96 % 0 % 0 lf 1004,3 hPa 0,2 l/m 0,00 h 0,00 h 0,000 mm 0,0 UV-I 0 W/m 8,1 km/h (2 Bft) 0,00 %
05.12.2012 23:00 11,7 C 1,6 C -22,9 C 0,2 C 0,0 C 96 % 0 % 0 lf 1004,7 hPa 0,0 l/m 0,00 h 0,00 h 0,000 mm 0,0 UV-I 0 W/m 10,6 km/h (2 Bft) 0,00 %
06.12.2012 00:00 11,7 C 1,1 C -23,0 C -1,0 C 0,0 C 96 % 0 % 0 lf 1005,5 hPa 0,0 l/m 0,00 h 0,00 h 0,000 mm 0,0 UV-I 0 W/m 8,5 km/h (2 Bft) 0,00 %
06.12.2012 01:00 11,6 C 0,5 C -21,4 C -1,5 C 0,0 C 95 % 0 % 0 lf 1006,3 hPa 0,0 l/m 0,00 h 0,00 h 0,000 mm 0,0 UV-I 0 W/m 8,6 km/h (2 Bft) 0,00 %
06.12.2012 02:00 11,6 C 0,6 C -23,0 C -1,5 C 0,0 C 95 % 0 % 0 lf 1007,1 hPa 0,0 l/m 0,00 h 0,00 h 0,000 mm 0,0 UV-I 0 W/m 15,1 km/h (3 Bft) 0,00 %
06.12.2012 03:00 11,6 C 0,5 C -19,5 C -1,3 C 0,0 C 95 % 0 % 0 lf 1008,4 hPa 0,0 l/m 0,00 h 0,00 h 0,000 mm 0,0 UV-I 0 W/m 14,6 km/h (3 Bft) 0,00 %
06.12.2012 04:00 11,6 C 0,4 C -23,0 C -1,2 C 0,0 C 95 % 0 % 0 lf 1009,2 hPa 0,0 l/m 0,00 h 0,00 h 0,000 mm 0,0 UV-I 0 W/m 8,3 km/h (2 Bft) 0,00 %
06.12.2012 05:00 11,6 C 0,0 C -23,1 C -1,6 C 0,0 C 94 % 0 % 0 lf 1009,9 hPa 0,0 l/m 0,00 h 0,00 h 0,000 mm 0,0 UV-I 0 W/m 8,3 km/h (2 Bft) 0,00 %
06.12.2012 06:00 11,6 C -0,3 C -23,1 C -2,0 C 0,0 C 95 % 0 % 0 lf 1010,7 hPa 0,0 l/m 0,00 h 0,00 h 0,000 mm 0,0 UV-I 0 W/m 4,7 km/h (1 Bft) 0,00 %
06.12.2012 07:00 11,4 C -0,2 C -23,1 C -2,0 C 0,0 C 94 % 0 % 0 lf 1011,7 hPa 0,0 l/m 0,00 h 0,00 h 0,000 mm 0,0 UV-I 0 W/m 8,7 km/h (2 Bft) 0,00 %
06.12.2012 08:00 11,4 C -0,6 C -23,1 C -2,6 C 0,0 C 93 % 0 % 0 lf 1012,3 hPa 0,0 l/m 0,00 h 0,00 h 0,000 mm 0,0 UV-I 0 W/m 7,2 km/h (2 Bft) 0,00 %
06.12.2012 09:00 11,3 C -0,4 C -23,1 C -2,2 C 0,0 C 94 % 0 % 0 lf 1013,2 hPa 0,0 l/m 0,00 h 0,00 h 0,000 mm 0,0 UV-I 0 W/m 9,9 km/h (2 Bft) 0,00 %
06.12.2012 10:00 11,4 C 0,2 C -23,0 C -1,7 C 0,0 C 94 % 0 % 0 lf 1014,0 hPa 0,0 l/m 0,00 h 0,00 h 0,000 mm 0,0 UV-I 0 W/m 10,2 km/h (2 Bft) 0,00 %
06.12.2012 11:00 11,4 C 1,3 C -22,9 C -1,4 C 0,2 C 92 % 0 % 0 lf 1014,6 hPa 0,0 l/m 0,00 h 0,00 h 0,000 mm 0,2 UV-I 0 W/m 11,8 km/h (2 Bft) 0,00 %
06.12.2012 12:00 11,5 C 2,3 C -22,9 C -0,9 C 0,3 C 88 % 0 % 0 lf 1014,8 hPa 0,0 l/m 0,00 h 0,00 h 0,000 mm 0,3 UV-I 0 W/m 12,2 km/h (2 Bft) 0,00 %
06.12.2012 13:00 11,6 C 3,0 C -22,8 C 0,4 C 0,2 C 85 % 0 % 0 lf 1015,0 hPa 0,0 l/m 0,00 h 0,00 h 0,000 mm 0,2 UV-I 0 W/m 11,2 km/h (2 Bft) 0,00 %
06.12.2012 14:00 11,6 C 3,0 C -22,8 C 0,9 C 0,0 C 85 % 0 % 0 lf 1015,6 hPa 0,0 l/m 0,00 h 0,00 h 0,000 mm 0,1 UV-I 0 W/m 13,3 km/h (3 Bft) 0,00 %
06.12.2012 15:00 11,4 C 1,9 C -22,9 C 0,1 C 0,0 C 89 % 0 % 0 lf 1015,2 hPa 0,0 l/m 0,00 h 0,00 h 0,000 mm 0,0 UV-I 0 W/m 9,3 km/h (2 Bft) 0,00 %
06.12.2012 16:00 11,2 C 1,5 C -22,9 C -0,3 C 0,0 C 91 % 0 % 0 lf 1015,3 hPa 0,0 l/m 0,00 h 0,00 h 0,000 mm 0,0 UV-I 0 W/m 7,5 km/h (2 Bft) 0,00 %
06.12.2012 17:00 11,2 C 1,6 C -22,9 C -0,1 C 0,0 C 91 % 0 % 0 lf 1015,1 hPa 0,0 l/m 0,00 h 0,00 h 0,000 mm 0,0 UV-I 0 W/m 5,0 km/h (1 Bft) 0,00 %
06.12.2012 18:00 11,2 C 1,7 C -22,9 C -0,1 C 0,0 C 92 % 0 % 0 lf 1015,1 hPa 0,0 l/m 0,00 h 0,00 h 0,000 mm 0,0 UV-I 0 W/m 3,9 km/h (1 Bft) 0,00 %
06.12.2012 19:00 11,2 C 1,8 C -22,9 C -0,0 C 0,0 C 92 % 0 % 0 lf 1014,3 hPa 0,0 l/m 0,00 h 0,00 h 0,000 mm 0,0 UV-I 0 W/m 4,5 km/h (1 Bft) 0,00 %
06.12.2012 20:00 11,2 C 1,6 C -22,9 C -0,7 C 0,0 C 92 % 0 % 0 lf 1013,8 hPa 0,0 l/m 0,00 h 0,00 h 0,000 mm 0,0 UV-I 0 W/m 6,3 km/h (2 Bft) 0,00 %
06.12.2012 21:00 11,1 C 1,3 C -23,0 C -1,3 C 0,0 C 92 % 0 % 0 lf 1013,3 hPa 0,0 l/m 0,00 h 0,00 h 0,000 mm 0,0 UV-I 0 W/m 4,8 km/h (1 Bft) 0,00 %
06.12.2012 22:00 11,1 C 1,1 C -23,0 C -1,5 C 0,0 C 92 % 0 % 0 lf 1012,5 hPa 0,0 l/m 0,00 h 0,00 h 0,000 mm 0,0 UV-I 0 W/m 6,6 km/h (2 Bft) 0,00 %
06.12.2012 23:00 11,2 C 1,1 C -23,0 C -1,7 C 0,0 C 89 % 0 % 0 lf 1011,9 hPa 0,0 l/m 0,00 h 0,00 h 0,000 mm 0,0 UV-I 0 W/m 7,5 km/h (2 Bft) 0,00 %
07.12.2012 00:00 11,2 C 0,6 C -23,1 C -1,8 C 0,0 C 89 % 0 % 0 lf 1010,8 hPa 0,0 l/m 0,00 h 0,00 h 0,000 mm 0,0 UV-I 0 W/m 11,9 km/h (2 Bft) 0,00 %
07.12.2012 01:00 11,2 C 0,6 C -23,1 C -2,6 C 0,0 C 86 % 0 % 0 lf 1009,6 hPa 0,0 l/m 0,00 h 0,00 h 0,000 mm 0,0 UV-I 0 W/m 16,4 km/h (3 Bft) 0,00 %
07.12.2012 02:00 11,1 C 0,6 C -23,0 C -2,1 C 0,0 C 85 % 0 % 0 lf 1008,2 hPa 0,0 l/m 0,00 h 0,00 h 0,000 mm 0,0 UV-I 0 W/m 18,3 km/h (3 Bft) 0,00 %
07.12.2012 03:00 11,1 C 0,8 C -23,0 C -1,9 C 0,0 C 84 % 0 % 0 lf 1006,4 hPa 0,0 l/m 0,00 h 0,00 h 0,000 mm 0,0 UV-I 0 W/m 15,9 km/h (3 Bft) 0,00 %
07.12.2012 04:00 11,1 C 1,0 C -23,0 C -1,7 C 0,0 C 83 % 0 % 0 lf 1004,7 hPa 0,0 l/m 0,00 h 0,00 h 0,000 mm 0,0 UV-I 0 W/m 21,3 km/h (4 Bft) 0,00 %
07.12.2012 05:00 11,1 C 1,4 C -22,9 C -1,5 C 0,0 C 81 % 0 % 0 lf 1003,0 hPa 0,0 l/m 0,00 h 0,00 h 0,000 mm 0,0 UV-I 0 W/m 24,6 km/h (4 Bft) 0,00 %
07.12.2012 06:00 11,0 C 1,6 C -22,9 C -1,3 C 0,0 C 80 % 0 % 0 lf 1002,2 hPa 0,0 l/m 0,00 h 0,00 h 0,000 mm 0,0 UV-I 0 W/m 23,4 km/h (4 Bft) 0,00 %
07.12.2012 07:00 11,0 C 1,2 C 2,9 C -1,1 C 0,0 C 83 % 0 % 0 lf 1001,8 hPa 0,0 l/m 0,00 h 0,00 h 0,000 mm 0,0 UV-I 0 W/m 23,7 km/h (4 Bft) 0,00 %
07.12.2012 08:00 10,9 C -0,0 C 14,8 C -1,1 C 0,0 C 91 % 0 % 0 lf 1001,4 hPa 0,0 l/m 0,00 h 0,00 h 0,000 mm 0,0 UV-I 0 W/m 19,9 km/h (4 Bft) 0,00 %
07.12.2012 09:00 10,8 C -0,4 C -19,6 C -0,7 C 0,0 C 94 % 0 % 0 lf 1000,7 hPa 0,0 l/m 0,00 h 0,00 h 0,000 mm 0,0 UV-I 0 W/m 18,8 km/h (3 Bft) 0,00 %
07.12.2012 10:00 11,0 C -0,5 C -11,0 C -0,4 C 0,0 C 95 % 0 % 0 lf 1000,0 hPa 0,0 l/m 0,00 h 0,00 h 0,000 mm 0,0 UV-I 0 W/m 21,8 km/h (4 Bft) 0,00 %
07.12.2012 11:00 11,0 C -0,5 C 28,6 C -0,5 C 0,0 C 96 % 0 % 0 lf 999,4 hPa 1,0 l/m 0,00 h 0,00 h 0,000 mm 0,0 UV-I 0 W/m 22,4 km/h (4 Bft) 0,00 %
07.12.2012 12:00 11,0 C -0,5 C 28,6 C -0,5 C 0,0 C 96 % 0 % 0 lf 999,0 hPa 1,5 l/m 0,00 h 0,00 h 0,000 mm 0,0 UV-I 0 W/m 18,9 km/h (3 Bft) 0,00 %
07.12.2012 13:00 11,0 C -0,4 C 28,6 C -0,4 C 0,0 C 97 % 0 % 0 lf 998,8 hPa 0,7 l/m 0,00 h 0,00 h 0,000 mm 0,0 UV-I 0 W/m 18,6 km/h (3 Bft) 0,00 %
07.12.2012 14:00 10,9 C -0,4 C 28,6 C -0,5 C 0,0 C 97 % 0 % 0 lf 998,8 hPa 1,0 l/m 0,00 h 0,00 h 0,000 mm 0,0 UV-I 0 W/m 18,6 km/h (3 Bft) 0,00 %
07.12.2012 15:00 10,8 C -0,4 C 28,6 C -0,4 C 0,0 C 97 % 0 % 0 lf 999,3 hPa 0,9 l/m 0,00 h 0,00 h 0,000 mm 0,0 UV-I 0 W/m 13,4 km/h (3 Bft) 0,00 %
07.12.2012 16:00 10,8 C -0,5 C 25,2 C -0,4 C 0,0 C 97 % 0 % 0 lf 1000,3 hPa 0,9 l/m 0,00 h 0,00 h 0,000 mm 0,0 UV-I 0 W/m 11,9 km/h (2 Bft) 0,00 %
07.12.2012 17:00 10,8 C -0,6 C -19,6 C -0,4 C 0,0 C 97 % 0 % 0 lf 1001,7 hPa 1,0 l/m 0,00 h 0,00 h 0,000 mm 0,0 UV-I 0 W/m 12,1 km/h (2 Bft) 0,00 %
07.12.2012 18:00 10,8 C -0,7 C -23,1 C -0,3 C 0,0 C 97 % 0 % 0 lf 1002,6 hPa 1,4 l/m 0,00 h 0,00 h 0,000 mm 0,0 UV-I 0 W/m 14,2 km/h (3 Bft) 0,00 %
07.12.2012 19:00 10,6 C -0,9 C -23,1 C -0,4 C 0,0 C 97 % 0 % 0 lf 1003,8 hPa 1,9 l/m 0,00 h 0,00 h 0,000 mm 0,0 UV-I 0 W/m 7,9 km/h (2 Bft) 0,00 %
07.12.2012 20:00 10,6 C -0,8 C -23,1 C -0,4 C 0,0 C 98 % 0 % 0 lf 1004,9 hPa 1,4 l/m 0,00 h 0,00 h 0,000 mm 0,0 UV-I 0 W/m 8,5 km/h (2 Bft) 0,00 %
07.12.2012 21:00 10,8 C -0,8 C -23,1 C -0,3 C 0,0 C 98 % 0 % 0 lf 1006,1 hPa 1,4 l/m 0,00 h 0,00 h 0,000 mm 0,0 UV-I 0 W/m 7,0 km/h (2 Bft) 0,00 %
07.12.2012 22:00 10,8 C -0,9 C -23,1 C -0,3 C 0,0 C 97 % 0 % 0 lf 1007,4 hPa 1,0 l/m 0,00 h 0,00 h 0,000 mm 0,0 UV-I 0 W/m 3,2 km/h (1 Bft) 0,00 %
07.12.2012 23:00 10,8 C -1,3 C -23,2 C -0,2 C 0,0 C 97 % 0 % 0 lf 1008,7 hPa 0,9 l/m 0,00 h 0,00 h 0,000 mm 0,0 UV-I 0 W/m 0,2 km/h (0 Bft) 0,00 %
08.12.2012 00:00 10,7 C -2,3 C -23,4 C -0,2 C 0,0 C 96 % 0 % 0 lf 1010,1 hPa 0,5 l/m 0,00 h 0,00 h 0,000 mm 0,0 UV-I 0 W/m 0,0 km/h (0 Bft) 0,00 %
08.12.2012 01:00 10,6 C -3,7 C -23,5 C -0,3 C 0,0 C 96 % 0 % 0 lf 1011,5 hPa 0,1 l/m 0,00 h 0,00 h 0,000 mm 0,0 UV-I 0 W/m 0,0 km/h (0 Bft) 0,00 %
08.12.2012 02:00 10,3 C -4,2 C -23,4 C -0,4 C 0,0 C 97 % 0 % 0 lf 1012,4 hPa 0,2 l/m 0,00 h 0,00 h 0,000 mm 0,0 UV-I 0 W/m 0,0 km/h (0 Bft) 0,00 %
08.12.2012 03:00 10,4 C -4,3 C -23,5 C -0,5 C 0,0 C 97 % 0 % 0 lf 1013,7 hPa 0,0 l/m 0,00 h 0,00 h 0,000 mm 0,0 UV-I 0 W/m 0,0 km/h (0 Bft) 0,00 %
08.12.2012 04:00 10,2 C -5,3 C -23,6 C -0,6 C 0,0 C 96 % 0 % 0 lf 1014,3 hPa 0,0 l/m 0,00 h 0,00 h 0,000 mm 0,0 UV-I 0 W/m 0,0 km/h (0 Bft) 0,00 %
08.12.2012 05:00 10,1 C -5,5 C -23,6 C -0,7 C 0,0 C 96 % 0 % 0 lf 1015,1 hPa 0,0 l/m 0,00 h 0,00 h 0,000 mm 0,0 UV-I 0 W/m 0,0 km/h (0 Bft) 0,00 %
08.12.2012 06:00 9,9 C -6,9 C -23,8 C -0,8 C 0,0 C 96 % 0 % 0 lf 1016,3 hPa 0,0 l/m 0,00 h 0,00 h 0,000 mm 0,0 UV-I 0 W/m 0,2 km/h (0 Bft) 0,00 %
08.12.2012 07:00 9,7 C -8,0 C -20,3 C -0,9 C 0,0 C 96 % 0 % 0 lf 1017,5 hPa 0,0 l/m 0,00 h 0,00 h 0,000 mm 0,0 UV-I 0 W/m 0,0 km/h (0 Bft) 0,00 %
08.12.2012 08:00 9,5 C -8,8 C -1,2 C -8,7 C 0,0 C 96 % 0 % 0 lf 1018,6 hPa 0,7 l/m 0,00 h 0,00 h 0,000 mm 0,0 UV-I 0 W/m 0,0 km/h (0 Bft) 0,00 %
08.12.2012 09:00 9,4 C -8,6 C -23,7 C -12,7 C 0,0 C 96 % 0 % 0 lf 1019,7 hPa 1,4 l/m 0,00 h 0,00 h 0,000 mm 0,0 UV-I 0 W/m 0,0 km/h (0 Bft) 0,00 %
08.12.2012 10:00 9,5 C -6,5 C -23,6 C -10,6 C 0,0 C 97 % 0 % 0 lf 1020,4 hPa 0,7 l/m 0,00 h 0,00 h 0,000 mm 0,0 UV-I 0 W/m 0,0 km/h (0 Bft) 0,00 %
08.12.2012 11:00 9,7 C -4,6 C -23,4 C -8,1 C 0,0 C 97 % 0 % 0 lf 1021,4 hPa 0,2 l/m 0,00 h 0,00 h 0,000 mm 0,0 UV-I 0 W/m 1,0 km/h (0 Bft) 0,00 %
08.12.2012 12:00 9,9 C -3,1 C -23,4 C -6,5 C 0,0 C 96 % 0 % 0 lf 1021,9 hPa 0,0 l/m 0,00 h 0,00 h 0,000 mm 0,0 UV-I 0 W/m 2,3 km/h (1 Bft) 0,00 %
08.12.2012 13:00 10,1 C -2,1 C -23,3 C -5,4 C 0,0 C 95 % 0 % 0 lf 1022,1 hPa 0,0 l/m 0,00 h 0,00 h 0,000 mm 0,0 UV-I 0 W/m 2,3 km/h (1 Bft) 0,00 %
08.12.2012 14:00 10,8 C -1,3 C -23,2 C -5,5 C 0,0 C 93 % 0 % 0 lf 1023,0 hPa 0,0 l/m 0,00 h 0,00 h 0,000 mm 0,0 UV-I 0 W/m 0,8 km/h (0 Bft) 0,00 %
08.12.2012 15:00 10,8 C -1,7 C -21,6 C -7,0 C 0,0 C 94 % 0 % 0 lf 1023,1 hPa 0,0 l/m 0,00 h 0,00 h 0,000 mm 0,0 UV-I 0 W/m 0,2 km/h (0 Bft) 0,00 %
08.12.2012 16:00 10,4 C -2,2 C -23,3 C -8,2 C 0,0 C 93 % 0 % 0 lf 1023,1 hPa 0,0 l/m 0,00 h 0,00 h 0,000 mm 0,0 UV-I 0 W/m 0,2 km/h (0 Bft) 0,00 %
08.12.2012 17:00 10,1 C -3,0 C -23,4 C -8,5 C 0,0 C 94 % 0 % 0 lf 1023,4 hPa 0,0 l/m 0,00 h 0,00 h 0,000 mm 0,0 UV-I 0 W/m 0,3 km/h (0 Bft) 0,00 %
08.12.2012 18:00 9,9 C -3,3 C -21,7 C -8,1 C 0,0 C 94 % 0 % 0 lf 1024,0 hPa 0,0 l/m 0,00 h 0,00 h 0,000 mm 0,0 UV-I 0 W/m 1,9 km/h (1 Bft) 0,00 %
08.12.2012 19:00 9,7 C -3,7 C -22,8 C -8,6 C 0,0 C 94 % 0 % 0 lf 1024,2 hPa 0,0 l/m 0,00 h 0,00 h 0,000 mm 0,0 UV-I 0 W/m 1,2 km/h (1 Bft) 0,00 %
08.12.2012 20:00 9,6 C -3,9 C -23,4 C -8,2 C 0,0 C 95 % 0 % 0 lf 1024,2 hPa 0,0 l/m 0,00 h 0,00 h 0,000 mm 0,0 UV-I 0 W/m 1,6 km/h (1 Bft) 0,00 %
08.12.2012 21:00 9,6 C -3,4 C -21,7 C -7,0 C 0,0 C 95 % 0 % 0 lf 1024,2 hPa 0,0 l/m 0,00 h 0,00 h 0,000 mm 0,0 UV-I 0 W/m 5,5 km/h (1 Bft) 0,00 %
08.12.2012 22:00 9,6 C -3,2 C -21,6 C -6,9 C 0,0 C 95 % 0 % 0 lf 1024,1 hPa 0,0 l/m 0,00 h 0,00 h 0,000 mm 0,0 UV-I 0 W/m 3,0 km/h (1 Bft) 0,00 %
08.12.2012 23:00 9,6 C -2,7 C -23,3 C -6,3 C 0,0 C 95 % 0 % 0 lf 1023,5 hPa 0,0 l/m 0,00 h 0,00 h 0,000 mm 0,0 UV-I 0 W/m 4,3 km/h (1 Bft) 0,00 %
09.12.2012 00:00 9,6 C -2,0 C -23,3 C -5,6 C 0,0 C 95 % 0 % 0 lf 1022,9 hPa 0,0 l/m 0,00 h 0,00 h 0,000 mm 0,0 UV-I 0 W/m 4,9 km/h (1 Bft) 0,00 %
09.12.2012 01:00 9,6 C -1,4 C -23,2 C -5,2 C 0,0 C 95 % 0 % 0 lf 1022,3 hPa 0,0 l/m 0,00 h 0,00 h 0,000 mm 0,0 UV-I 0 W/m 7,5 km/h (2 Bft) 0,00 %
09.12.2012 02:00 9,6 C -0,9 C -23,1 C -4,8 C 0,0 C 95 % 0 % 0 lf 1022,0 hPa 0,0 l/m 0,00 h 0,00 h 0,000 mm 0,0 UV-I 0 W/m 9,0 km/h (2 Bft) 0,00 %
09.12.2012 03:00 9,8 C -0,6 C -19,7 C -4,5 C 0,0 C 94 % 0 % 0 lf 1021,4 hPa 0,0 l/m 0,00 h 0,00 h 0,000 mm 0,0 UV-I 0 W/m 8,2 km/h (2 Bft) 0,00 %
09.12.2012 04:00 9,8 C -0,5 C 28,6 C -3,9 C 0,0 C 95 % 0 % 0 lf 1020,4 hPa 0,2 l/m 0,00 h 0,00 h 0,000 mm 0,0 UV-I 0 W/m 7,1 km/h (2 Bft) 0,00 %
09.12.2012 05:00 9,9 C 0,0 C 23,5 C -2,4 C 0,0 C 96 % 0 % 0 lf 1019,1 hPa 0,1 l/m 0,00 h 0,00 h 0,000 mm 0,0 UV-I 0 W/m 9,1 km/h (2 Bft) 0,00 %
09.12.2012 06:00 9,8 C 0,6 C -19,5 C -1,6 C 0,0 C 97 % 0 % 0 lf 1017,7 hPa 0,2 l/m 0,00 h 0,00 h 0,000 mm 0,0 UV-I 0 W/m 10,6 km/h (2 Bft) 0,00 %
09.12.2012 07:00 9,8 C 1,1 C 4,6 C -1,5 C 0,0 C 96 % 0 % 0 lf 1016,7 hPa 1,0 l/m 0,00 h 0,00 h 0,000 mm 0,0 UV-I 0 W/m 17,9 km/h (3 Bft) 0,00 %
09.12.2012 08:00 9,6 C 1,5 C -0,6 C -1,4 C 0,0 C 96 % 0 % 0 lf 1015,6 hPa 1,0 l/m 0,00 h 0,00 h 0,000 mm 0,0 UV-I 0 W/m 20,3 km/h (4 Bft) 0,00 %
09.12.2012 09:00 9,6 C 1,8 C 5,5 C -0,6 C 0,0 C 97 % 0 % 0 lf 1015,2 hPa 0,6 l/m 0,00 h 0,00 h 0,000 mm 0,0 UV-I 0 W/m 21,1 km/h (4 Bft) 0,00 %
09.12.2012 10:00 9,7 C 2,2 C 16,7 C 0,2 C 0,0 C 97 % 0 % 0 lf 1014,2 hPa 0,6 l/m 0,00 h 0,00 h 0,000 mm 0,0 UV-I 0 W/m 17,7 km/h (3 Bft) 0,00 %
09.12.2012 11:00 9,9 C 2,7 C -9,0 C 0,7 C 0,0 C 97 % 0 % 0 lf 1013,1 hPa 0,2 l/m 0,00 h 0,00 h 0,000 mm 0,0 UV-I 0 W/m 21,9 km/h (4 Bft) 0,00 %
09.12.2012 12:00 10,0 C 3,1 C 6,8 C 1,3 C 0,0 C 97 % 0 % 0 lf 1012,2 hPa 0,1 l/m 0,00 h 0,00 h 0,000 mm 0,0 UV-I 0 W/m 20,2 km/h (4 Bft) 0,00 %
09.12.2012 13:00 10,0 C 3,5 C 23,6 C 1,6 C 0,0 C 98 % 0 % 0 lf 1011,0 hPa 0,6 l/m 0,00 h 0,00 h 0,000 mm 0,0 UV-I 0 W/m 22,8 km/h (4 Bft) 0,00 %
09.12.2012 14:00 10,2 C 3,7 C 20,2 C 1,7 C 0,0 C 98 % 0 % 0 lf 1010,2 hPa 0,5 l/m 0,00 h 0,00 h 0,000 mm 0,0 UV-I 0 W/m 18,3 km/h (3 Bft) 0,00 %
09.12.2012 15:00 10,2 C 4,1 C -15,8 C 1,9 C 0,0 C 98 % 0 % 0 lf 1009,8 hPa 0,1 l/m 0,00 h 0,00 h 0,000 mm 0,0 UV-I 0 W/m 18,9 km/h (3 Bft) 0,00 %
09.12.2012 16:00 10,3 C 4,5 C -14,1 C 1,9 C 0,0 C 98 % 0 % 0 lf 1008,6 hPa 0,1 l/m 0,00 h 0,00 h 0,000 mm 0,0 UV-I 0 W/m 16,8 km/h (3 Bft) 0,00 %
09.12.2012 17:00 10,4 C 5,0 C -12,4 C 2,2 C 0,0 C 97 % 0 % 0 lf 1008,0 hPa 0,1 l/m 0,00 h 0,00 h 0,000 mm 0,0 UV-I 0 W/m 20,6 km/h (4 Bft) 0,00 %
09.12.2012 18:00 10,5 C 5,0 C -19,2 C 2,0 C 0,0 C 97 % 0 % 0 lf 1007,5 hPa 0,0 l/m 0,00 h 0,00 h 0,000 mm 0,0 UV-I 0 W/m 12,1 km/h (2 Bft) 0,00 %
09.12.2012 19:00 10,6 C 4,6 C -22,8 C 1,3 C 0,0 C 95 % 0 % 0 lf 1006,8 hPa 0,0 l/m 0,00 h 0,00 h 0,000 mm 0,0 UV-I 0 W/m 12,4 km/h (3 Bft) 0,00 %
09.12.2012 20:00 10,6 C 4,3 C -22,8 C 1,1 C 0,0 C 96 % 0 % 0 lf 1006,4 hPa 0,0 l/m 0,00 h 0,00 h 0,000 mm 0,0 UV-I 0 W/m 15,7 km/h (3 Bft) 0,00 %
09.12.2012 21:00 10,5 C 4,4 C -10,7 C 1,4 C 0,0 C 95 % 0 % 0 lf 1006,0 hPa 0,2 l/m 0,00 h 0,00 h 0,000 mm 0,0 UV-I 0 W/m 20,8 km/h (4 Bft) 0,00 %
09.12.2012 22:00 10,6 C 3,9 C -17,6 C 1,5 C 0,0 C 94 % 0 % 0 lf 1006,1 hPa 0,1 l/m 0,00 h 0,00 h 0,000 mm 0,0 UV-I 0 W/m 16,5 km/h (3 Bft) 0,00 %
09.12.2012 23:00 10,6 C 3,5 C -22,9 C 0,6 C 0,0 C 94 % 0 % 0 lf 1005,6 hPa 0,0 l/m 0,00 h 0,00 h 0,000 mm 0,0 UV-I 0 W/m 16,4 km/h (3 Bft) 0,00 %
Min-Datum _ 08.12.12 08.12.12 08.12.12 08.12.12 03.12.12 07.12.12 03.12.12 03.12.12 04.12.12 - - - - - - 03.12.12 03.12.12
_ Min-Zeit 08:38 08:36 07:18 09:00 00:00 06:32 00:00 00:00 15:18 - - - - - - 00:00 00:00
Minimum _ 9,3 C -9,0 C -23,9 C -14,0 C 0,0 C 79 % 0 % 0 lf 996,5 hPa - - - - - - 0,0 km/h (0 Bft) 0,00 %
Max-Datum _ 05.12.12 04.12.12 03.12.12 04.12.12 05.12.12 03.12.12 03.12.12 03.12.12 08.12.12 03.12.12 03.12.12 03.12.12 03.12.12 05.12.12 03.12.12 07.12.12 03.12.12
_ Max-Zeit 14:22 12:08 19:44 12:34 12:32 18:38 00:00 00:00 18:38 13:38 00:00 00:00 00:00 12:32 00:00 05:58 00:00
Maximum _ 12,7 C 5,9 C 28,8 C 4,7 C 0,3 C 98 % 0 % 0 lf 1024,4 hPa 1,9 l/m 0,00 h 0,00 h 0,000 mm 0,3 UV-I 0 W/m 66,2 km/h
O-NO (8 Bft)
0,00 %
Durchschnitt _ 11,2 C 1,2 C -14,6 C -0,6 C 0,0 C 94 % 0 % 0 lf 1008,3 hPa #35,5 l/m #0 min. #0 min. #0,000 mm 0,2 UV-I 0 W/m 9,1 km/h (2 Bft) 0,00 %
© 2012 W. Hausmann